Regional Weather Roundup
Issued by NWS

Home | Current Version | Previous Version | Graphics & Text | Print | Product List | Glossary On
Versions: 1 2 3 4 5 6 7 8 9 10 11 12 13 14 15 16 17 18 19 20 21 22 23 24 25 26 27 28 29 30 31 32 33 34 35 36 37 38 39 40 41 42 43 44 45 46 47 48 49 50
000
ASUS43 KLOT 281903
RWRIL

ILLINOIS REGIONAL WEATHER ROUNDUP
NATIONAL WEATHER SERVICE CHICAGO/ROMEOVILLE IL
200 PM CDT SUN AUG 28 2016

NOTE: "FAIR" INDICATES FEW OR NO CLOUDS BELOW 12,000 FEET WITH NO
SIGNIFICANT WEATHER AND/OR OBSTRUCTIONS TO VISIBILITY.

* THESE STATIONS ARE NOT UNDER NWS QUALITY CONTROL. THEY ALSO MAY NOT
  REPORT WEATHER SUCH AS PRECIPITATION OR FOG.

ILZ001-002-007-009-015-016-024-282000-
NORTHWEST ILLINOIS

CITY           SKY/WX    TMP DP  RH WIND       PRES   REMARKS
MOLINE         SUNNY     87  72  60 CALM      30.14F HX  93
STERLING*      MOSUNNY   84  75  74 E6        30.15F HX  92
SAVANNA*       CLOUDY    85  72  65 CALM      30.15F HX  90
$$

ILZ003-004-008-010-011-017-018-282000-
NORTH CENTRAL ILLINOIS

CITY           SKY/WX    TMP DP  RH WIND       PRES   REMARKS
ROCKFORD       MOSUNNY   85  70  60 E5        30.18F HX  89
FREEPORT*      MOSUNNY   83  70  66 E3        30.19F HX  87
ROCHELLE*      PTSUNNY   85  71  62 CALM      30.17F HX  90
$$

ILZ005-006-012>014-019>023-282000-
NORTHEAST ILLINOIS

CITY           SKY/WX    TMP DP  RH WIND       PRES   REMARKS
CHICAGO-OHARE  MOSUNNY   82  69  64 E7        30.18F HX  85
CHICAGO-MIDWAY MOSUNNY   83  68  60 E9        30.18F HX  86
AURORA         MOSUNNY   87  72  60 E3        30.18S HX  93
LANSING*       MOSUNNY   78  72  80 NE9       30.20R HX  81
JOLIET*        CLOUDY    78  71  78 SW10G23   30.19R THUNDER HX  80
WAUKEGAN       MOSUNNY   75  68  78 NE7       30.20F
DUPAGE AIRPORT SUNNY     85  71  63 E7        30.17F HX  90
KANKAKEE*      CLOUDY    77  71  84 NW6       30.20R
WHEELING       SUNNY     79  68  69 E8        30.21S HX  81
MORRIS*        TSTM      73  68  84 S7G17     30.20R
ROMEOVILLE*    CLOUDY    82  75  81 E5        30.18S HX  88
$$

LMZ740>746-282000-
SOUTHERN LAKE MICHIGAN

STATION/POSITION SKY/WX   TEMP    WIND        PRES    VSBY  WAVE
                          AIR SEA DIR/SP/G                  HT/PER
                          (F)     (DEG/KT/KT) (MB)    (MI)  (FT/S)
SOUTHERN BUOY              72 75   50/  8/ 10 1022.6          1
WILMETTE HARBOR            72 71   30/  4/  6   N/A           1
HARRISON CRIB              75      50/  7/  7   N/A
BURNHAM HARBOR             77      60/  5/  7   N/A
CALUMET HARBOR             76      30/  9/ 12 1022.1F
BURNS HARBOR               76      40/ 12/ 15 1022.7F
MICHIGAN CITY              74      10/ 15/ 16   N/A
MICHIGAN CITY 6N           76 77   30/ 12/ 14   N/A           2/ 2
ST. JOSEPH                 74 75   10/ 10/ 14 1022.3F         2/ 2
$$

ILZ025>027-034>036-040-047-049-050-058-095>099-282000-
WEST-CENTRAL ILLINOIS

CITY           SKY/WX    TMP DP  RH WIND       PRES   REMARKS
QUINCY         CLOUDY    82  71  69 E3        30.16S HX  86
GALESBURG*     CLOUDY    81  70  70 NE8G17    30.16S THUNDER HX  84
MACOMB*        MOSUNNY   85  76  75 CALM      30.17F HX  94
JACKSONVILLE*  MOSUNNY   85  76  72 NE8       30.15F HX  95
PITTSFIELD*    CLOUDY    85  75  72 E3        30.15F HX  94
$$

ILZ028>032-037-038-041>044-048-051>054-059>061-282000-
CENTRAL ILLINOIS

CITY           SKY/WX    TMP DP  RH WIND       PRES   REMARKS
PONTIAC        TSTM      76  72  87 NE18G29   30.20R
BLOOMINGTON    PTSUNNY   85  74  69 S8        30.18F HX  92
DECATUR        MOSUNNY   89  70  53 SW6G21    30.16F HX  94
PEORIA         MOSUNNY   87  72  60 S7        30.15F HX  93
LACON*         TSTM      77  70  79 E13       30.15S
LINCOLN*       MOSUNNY   86  75  69 S5        30.15F HX  94
SPRINGFIELD    LGT RAIN  78  75  90 NW8       30.15F FOG     HX  81
TAYLORVILLE    SUNNY     88  73  60 S6        30.15F HX  95
$$

ILZ033-039-045-046-055>057-062-063-282000-
EAST-CENTRAL ILLINOIS

CITY           SKY/WX    TMP DP  RH WIND       PRES   REMARKS
CHAMPAIGN      MOSUNNY   88  74  63 SE5       30.17F HX  96
RANTOUL*       SUNNY     88  75  65 SE7       30.17F HX  97
MATTOON        SUNNY     88  69  53 SW3       30.16F HX  92
PARIS*         SUNNY     89  77  67 CALM      30.17F HX 100
$$

ILZ079-100>102-282000-
SOUTHWEST ILLINOIS

CITY           SKY/WX    TMP DP  RH WIND       PRES   REMARKS
ALTON          MOSUNNY   88  72  58 VRB3      30.15F HX  94
BELLEVILLE     SUNNY     91  72  53 VRB7      30.13F HX  99
CAHOKIA*       PTSUNNY   93  68  43 S7        30.13F HX  97
SPARTA*        SUNNY     89  75  62 SE3       30.15F HX  99
$$

ILZ064>066-069>071-074>076-080>082-084>086-088>090-092>094-282000-
SOUTH-CENTRAL ILLINOIS

CITY           SKY/WX    TMP DP  RH WIND       PRES   REMARKS
CARBONDALE     SUNNY     90  73  57 SE7       30.14F HX  98
EFFINGHAM*     MOSUNNY   90  72  54 E5        30.18S HX  97
MARION         MOSUNNY   91  75  59 SE7       30.16S HX 102
MT. VERNON     MOSUNNY   91  73  55 CALM      30.16S HX 100
CENTRALIA*     MOSUNNY   91  75  58 E5        30.15S HX 102
SALEM*         MOSUNNY   90  71  53 E3        30.16S HX  96
METROPOLIS*    MOSUNNY   92  75  57 NE5       30.14F HX 104
$$

ILZ067-068-072-073-078-083-087-091-282000-
SOUTHEAST ILLINOIS

CITY           SKY/WX    TMP DP  RH WIND       PRES   REMARKS
LAWRENCEVILLE  MOSUNNY   92  73  53 VRB3      30.16F HX 100
FLORA*         MOSUNNY   92  73  52 SE5       30.16F HX 100
FAIRFIELD*     PTSUNNY   90  76  61 S5        30.14F HX 101
HARRISBURG*    CLOUDY    87  74  65 NE7       30.15F HX  95
ROBINSON*      CLOUDY    86  77  75 CALM      30.17F HX  97
CARMI*         TSTM      82  76  82 W12       30.15S HX  88
$$

ABBREVIATIONS USED IN REMARKS
   TC - TEMPERATURE IN CELSIUS
  WCI - WIND CHILL INDEX
   HX - HEAT INDEX
  VSB - VISIBILITY
$$




USA.gov is the U.S. government's official web portal to all federal, state and local government web resources and services.